GFSFLT1_prec_precacc_195.txt.gz
Total_Precipitation_Accumulation
0.00 0.01 0.03 0.04 0.07 0.29 0.67 1.07 1.58 2.74 1.92 1.10 0.63 0.64 0.69 0.72 0.82 0.84 1.41 0.92 0.86 0.88 0.48 0.37 0.36 0.23 0.13 0.11 0.10 0.17 0.11 0.16
0.01 0.01 0.04 0.03 0.16 0.49 0.76 0.83 0.94 0.82 0.38 0.34 0.35 0.49 0.73 0.84 0.90 0.74 1.37 1.14 0.73 0.97 1.06 0.55 0.50 0.30 0.16 0.13 0.20 0.18 0.18 0.19
0.01 0.05 0.11 0.18 0.33 0.38 0.24 0.10 0.07 0.10 0.11 0.15 0.17 0.21 0.45 0.55 1.15 0.83 1.00 1.15 0.50 0.49 0.79 0.74 0.59 0.38 0.34 0.21 0.19 0.16 0.16 0.22
0.04 0.06 0.07 0.06 0.04 0.10 0.07 0.06 0.04 0.03 0.06 0.09 0.17 0.18 0.31 0.55 1.21 1.27 0.87 1.13 0.68 0.38 0.56 0.70 0.69 0.55 0.44 0.25 0.23 0.21 0.15 0.16
0.01 0.01 0.02 0.01 0.07 0.03 0.09 0.13 0.07 0.06 0.04 0.05 0.07 0.10 0.15 0.28 0.62 0.88 0.95 0.95 0.83 0.58 0.61 0.67 0.76 0.56 0.44 0.31 0.32 0.32 0.38 0.26
0.05 0.10 0.04 0.03 0.04 0.09 0.16 0.15 0.16 0.16 0.10 0.09 0.10 0.10 0.18 0.21 0.39 0.89 1.02 1.09 1.27 1.05 0.94 1.03 0.87 0.85 0.59 0.47 0.46 0.51 0.44 0.36
0.35 0.18 0.04 0.02 0.07 0.12 0.22 0.21 0.23 0.25 0.23 0.17 0.19 0.25 0.18 0.18 0.31 0.85 1.11 1.17 1.14 1.23 1.68 1.72 1.50 1.31 1.31 0.97 0.75 0.62 0.50 0.48
0.19 0.17 0.10 0.09 0.13 0.17 0.28 0.27 0.27 0.28 0.26 0.34 0.25 0.21 0.18 0.15 0.19 0.28 0.80 1.36 1.42 1.15 1.26 1.78 1.82 1.67 1.57 1.47 1.51 1.42 1.12 1.04
0.22 0.20 0.15 0.16 0.15 0.24 0.39 0.39 0.30 0.29 0.29 0.36 0.35 0.23 0.23 0.25 0.22 0.24 0.25 0.69 1.32 1.96 1.59 1.42 1.62 1.42 1.76 2.00 1.99 2.10 2.16 2.15
0.40 0.37 0.22 0.17 0.17 0.26 0.40 0.39 0.25 0.30 0.36 0.37 0.43 0.45 0.38 0.35 0.37 0.48 0.49 0.68 1.10 1.99 2.70 2.45 2.29 2.47 2.09 2.34 2.50 2.31 2.31 2.21
0.63 0.68 0.44 0.25 0.19 0.33 0.46 0.40 0.36 0.35 0.49 0.54 0.61 0.56 0.58 0.50 0.61 1.09 1.49 1.12 1.42 1.55 2.20 3.10 3.33 3.22 3.25 2.98 2.90 2.49 2.34 2.14
0.91 0.95 0.74 0.45 0.31 0.37 0.47 0.54 0.52 0.58 0.70 0.77 0.80 0.96 1.27 1.27 1.25 1.80 2.10 1.76 1.92 2.58 2.44 2.45 2.85 2.90 3.41 3.46 2.97 2.68 2.42 2.12
1.29 1.17 0.79 0.63 0.52 0.41 0.33 0.54 0.83 0.72 0.82 1.06 1.03 1.17 1.64 2.11 2.30 2.44 3.17 3.56 2.88 2.92 2.80 2.13 1.96 1.97 2.23 3.08 2.95 2.41 2.23 1.92
1.40 1.89 1.52 0.91 0.66 0.59 0.51 0.48 0.72 0.85 1.09 1.22 1.75 2.01 1.87 2.05 2.05 2.05 2.30 2.76 2.45 2.69 2.59 2.33 1.91 1.60 1.54 1.60 2.35 2.46 1.87 1.69
1.60 1.81 2.11 1.52 1.37 1.15 0.91 0.75 0.75 0.92 0.98 1.24 1.22 1.50 1.88 2.04 2.24 2.31 2.75 2.61 2.68 2.81 2.99 1.97 1.49 1.32 1.15 1.05 1.05 1.52 1.84 1.49
0.96 1.09 1.60 1.42 1.33 1.22 0.91 0.84 0.84 0.78 0.77 0.97 1.35 1.10 1.29 1.34 1.47 1.68 1.82 2.05 2.29 2.67 2.78 2.27 1.52 1.39 1.32 1.10 1.04 1.02 1.36 1.70
0.94 0.80 0.77 0.81 0.78 0.77 0.70 0.80 0.78 0.91 0.89 0.79 0.88 0.88 0.91 1.00 0.99 1.06 1.03 1.06 1.06 1.25 1.64 2.26 2.22 1.73 1.92 1.56 1.19 1.05 1.09 1.34
0.73 0.69 0.67 0.63 0.51 0.49 0.57 0.56 0.62 0.49 0.82 0.89 0.71 0.76 0.86 0.68 0.69 0.68 0.70 0.76 0.99 0.97 0.88 1.12 1.59 1.62 2.39 2.35 2.29 1.21 1.19 1.27
0.41 0.21 0.18 0.20 0.27 0.29 0.37 0.49 0.48 0.56 0.53 0.52 0.74 0.60 0.47 0.47 0.48 0.59 0.62 0.75 0.76 0.72 0.82 0.80 0.85 1.08 1.72 1.97 3.03 2.81 1.76 1.49

GFSFLT1_prec_precacc_198.txt.gz
Total_Precipitation_Accumulation
0.00 0.01 0.03 0.04 0.07 0.29 0.67 1.07 1.58 2.74 1.92 1.10 0.63 0.64 0.69 0.72 0.82 0.84 1.41 0.92 0.86 0.88 0.48 0.37 0.36 0.23 0.13 0.11 0.10 0.17 0.11 0.16
0.01 0.01 0.04 0.03 0.16 0.49 0.76 0.83 0.94 0.82 0.38 0.34 0.35 0.49 0.73 0.84 0.90 0.74 1.37 1.14 0.73 0.97 1.06 0.55 0.50 0.30 0.16 0.13 0.20 0.18 0.18 0.19
0.01 0.05 0.11 0.18 0.33 0.38 0.24 0.10 0.07 0.10 0.11 0.15 0.17 0.21 0.45 0.55 1.15 0.83 1.00 1.15 0.50 0.49 0.79 0.74 0.59 0.38 0.34 0.21 0.19 0.16 0.16 0.22
0.04 0.06 0.07 0.06 0.04 0.10 0.07 0.06 0.04 0.04 0.06 0.09 0.17 0.18 0.31 0.55 1.21 1.27 0.87 1.13 0.68 0.38 0.56 0.70 0.69 0.55 0.44 0.25 0.23 0.21 0.15 0.16
0.01 0.01 0.02 0.01 0.07 0.03 0.09 0.13 0.07 0.06 0.05 0.06 0.08 0.10 0.15 0.28 0.62 0.88 0.95 0.95 0.83 0.58 0.61 0.67 0.76 0.56 0.44 0.31 0.32 0.32 0.38 0.26
0.05 0.10 0.04 0.03 0.04 0.09 0.16 0.16 0.16 0.17 0.14 0.13 0.13 0.13 0.19 0.21 0.39 0.89 1.02 1.09 1.27 1.05 0.94 1.03 0.87 0.85 0.59 0.47 0.46 0.51 0.44 0.36
0.35 0.18 0.04 0.02 0.07 0.14 0.24 0.23 0.26 0.28 0.26 0.22 0.24 0.29 0.21 0.19 0.31 0.85 1.11 1.17 1.14 1.23 1.68 1.72 1.50 1.31 1.31 0.97 0.75 0.62 0.50 0.48
0.19 0.17 0.10 0.09 0.15 0.23 0.36 0.35 0.37 0.38 0.35 0.42 0.33 0.26 0.23 0.19 0.20 0.29 0.80 1.37 1.42 1.16 1.26 1.78 1.82 1.67 1.57 1.47 1.51 1.42 1.12 1.04
0.22 0.20 0.15 0.16 0.16 0.29 0.48 0.52 0.44 0.43 0.42 0.47 0.43 0.27 0.24 0.25 0.22 0.24 0.25 0.69 1.33 1.97 1.60 1.42 1.62 1.42 1.76 2.00 1.99 2.10 2.16 2.15
0.40 0.37 0.22 0.17 0.17 0.27 0.46 0.50 0.36 0.38 0.43 0.44 0.54 0.57 0.41 0.35 0.37 0.48 0.49 0.68 1.10 2.00 2.71 2.45 2.29 2.47 2.09 2.34 2.50 2.31 2.31 2.21
0.63 0.68 0.44 0.25 0.19 0.33 0.46 0.43 0.48 0.54 0.68 0.65 0.68 0.62 0.61 0.51 0.61 1.09 1.50 1.12 1.43 1.57 2.24 3.15 3.38 3.25 3.27 3.00 2.91 2.50 2.35 2.15
0.91 0.96 0.75 0.45 0.31 0.37 0.47 0.54 0.52 0.61 0.78 0.91 0.97 1.17 1.41 1.34 1.27 1.82 2.11 1.78 1.94 2.63 2.53 2.55 2.97 3.03 3.57 3.61 3.13 2.82 2.54 2.23
1.30 1.20 0.86 0.63 0.52 0.41 0.33 0.54 0.83 0.72 0.83 1.08 1.09 1.29 1.78 2.17 2.32 2.46 3.18 3.58 2.91 2.97 2.85 2.18 2.00 2.03 2.31 3.18 3.06 2.52 2.33 1.99
1.40 1.90 1.56 0.93 0.67 0.60 0.52 0.48 0.73 0.86 1.10 1.23 1.75 2.07 2.00 2.22 2.18 2.11 2.34 2.82 2.53 2.79 2.67 2.43 2.02 1.72 1.67 1.71 2.43 2.51 1.89 1.71
1.60 1.81 2.11 1.52 1.37 1.15 0.91 0.75 0.75 0.92 0.99 1.24 1.22 1.50 1.89 2.09 2.32 2.38 2.83 2.70 2.79 2.91 3.11 2.09 1.61 1.41 1.21 1.09 1.08 1.54 1.85 1.50
0.96 1.09 1.60 1.42 1.33 1.22 0.92 0.84 0.84 0.78 0.77 0.97 1.35 1.10 1.30 1.35 1.49 1.72 1.88 2.15 2.41 2.79 2.91 2.40 1.61 1.44 1.33 1.11 1.04 1.03 1.36 1.70
0.94 0.80 0.77 0.81 0.79 0.79 0.73 0.82 0.78 0.91 0.89 0.79 0.88 0.88 0.91 1.00 1.01 1.09 1.09 1.13 1.13 1.30 1.68 2.29 2.25 1.75 1.93 1.57 1.19 1.05 1.10 1.34
0.73 0.69 0.68 0.66 0.55 0.58 0.67 0.58 0.62 0.49 0.82 0.89 0.71 0.76 0.86 0.68 0.69 0.69 0.72 0.79 1.03 1.01 0.92 1.14 1.61 1.65 2.43 2.39 2.29 1.21 1.19 1.28
0.44 0.24 0.22 0.25 0.30 0.32 0.41 0.50 0.48 0.56 0.53 0.52 0.74 0.60 0.47 0.47 0.49 0.60 0.62 0.77 0.78 0.75 0.84 0.81 0.89 1.12 1.73 1.98 3.03 2.81 1.76 1.50

GFSFLT1_prec_precacc_201.txt.gz
Total_Precipitation_Accumulation
0.00 0.01 0.03 0.04 0.07 0.29 0.67 1.07 1.58 2.74 1.92 1.10 0.63 0.64 0.69 0.72 0.82 0.84 1.41 0.92 0.86 0.88 0.48 0.37 0.36 0.23 0.13 0.11 0.10 0.17 0.11 0.16
0.01 0.01 0.04 0.03 0.16 0.49 0.76 0.83 0.94 0.82 0.38 0.34 0.35 0.49 0.73 0.84 0.90 0.74 1.37 1.14 0.73 0.97 1.06 0.55 0.50 0.30 0.16 0.13 0.20 0.18 0.18 0.19
0.01 0.05 0.11 0.18 0.33 0.38 0.24 0.10 0.07 0.10 0.11 0.15 0.17 0.21 0.45 0.55 1.15 0.83 1.00 1.15 0.50 0.49 0.79 0.74 0.59 0.38 0.34 0.21 0.19 0.16 0.16 0.22
0.04 0.06 0.07 0.06 0.04 0.10 0.07 0.06 0.04 0.04 0.06 0.09 0.17 0.19 0.31 0.55 1.21 1.27 0.87 1.13 0.68 0.38 0.56 0.70 0.69 0.55 0.44 0.25 0.23 0.21 0.15 0.16
0.01 0.01 0.02 0.01 0.07 0.03 0.09 0.13 0.07 0.06 0.05 0.06 0.08 0.11 0.15 0.29 0.63 0.89 0.95 0.95 0.83 0.58 0.61 0.67 0.76 0.56 0.44 0.31 0.32 0.32 0.38 0.26
0.05 0.10 0.04 0.03 0.04 0.09 0.16 0.16 0.16 0.17 0.14 0.14 0.15 0.14 0.21 0.22 0.41 0.91 1.03 1.09 1.27 1.05 0.94 1.03 0.87 0.85 0.59 0.47 0.46 0.51 0.44 0.36
0.35 0.18 0.04 0.02 0.07 0.14 0.24 0.23 0.26 0.30 0.29 0.24 0.28 0.32 0.24 0.23 0.34 0.87 1.13 1.17 1.14 1.23 1.68 1.72 1.50 1.31 1.31 0.97 0.75 0.62 0.50 0.48
0.19 0.17 0.10 0.09 0.15 0.23 0.36 0.36 0.38 0.40 0.38 0.46 0.37 0.31 0.29 0.26 0.26 0.32 0.83 1.38 1.43 1.16 1.26 1.78 1.82 1.67 1.57 1.47 1.51 1.42 1.12 1.04
0.22 0.20 0.15 0.16 0.16 0.29 0.48 0.54 0.46 0.46 0.46 0.52 0.50 0.33 0.31 0.33 0.30 0.31 0.30 0.74 1.37 1.98 1.60 1.43 1.63 1.42 1.76 2.00 1.99 2.10 2.16 2.15
0.40 0.37 0.22 0.17 0.17 0.27 0.46 0.50 0.40 0.45 0.50 0.50 0.60 0.69 0.64 0.63 0.72 0.90 0.97 1.16 1.45 2.13 2.72 2.46 2.29 2.47 2.10 2.35 2.51 2.32 2.33 2.23
0.63 0.68 0.44 0.25 0.19 0.33 0.46 0.43 0.49 0.58 0.83 0.91 0.98 0.86 0.80 0.71 0.85 1.29 1.65 1.26 1.58 1.62 2.25 3.15 3.38 3.26 3.28 3.02 2.93 2.52 2.38 2.18
0.91 0.96 0.75 0.45 0.31 0.37 0.47 0.54 0.52 0.61 0.78 0.95 1.17 1.51 1.78 1.65 1.47 1.94 2.18 1.82 1.99 2.65 2.55 2.59 2.99 3.05 3.60 3.68 3.21 2.91 2.65 2.34
1.30 1.20 0.86 0.63 0.52 0.41 0.33 0.54 0.83 0.72 0.83 1.08 1.10 1.32 1.88 2.38 2.56 2.67 3.27 3.65 2.99 3.06 2.93 2.24 2.05 2.09 2.38 3.26 3.13 2.58 2.38 2.06
1.40 1.90 1.56 0.93 0.67 0.60 0.52 0.48 0.73 0.86 1.10 1.23 1.76 2.07 2.02 2.28 2.31 2.27 2.47 2.91 2.61 2.88 2.76 2.49 2.06 1.79 1.78 1.83 2.52 2.58 1.96 1.77
1.60 1.81 2.11 1.52 1.37 1.15 0.91 0.75 0.75 0.92 0.99 1.25 1.23 1.51 1.90 2.10 2.36 2.51 3.04 2.98 3.11 3.21 3.34 2.24 1.72 1.52 1.29 1.14 1.12 1.58 1.89 1.55
0.96 1.09 1.60 1.42 1.33 1.22 0.93 0.84 0.85 0.78 0.77 0.97 1.36 1.11 1.30 1.36 1.50 1.73 1.92 2.24 2.54 2.95 3.09 2.57 1.72 1.48 1.35 1.12 1.05 1.03 1.37 1.71
0.94 0.80 0.77 0.81 0.79 0.79 0.73 0.84 0.82 0.94 0.90 0.79 0.88 0.88 0.91 1.01 1.01 1.10 1.11 1.17 1.20 1.39 1.76 2.34 2.28 1.76 1.94 1.58 1.19 1.06 1.10 1.34
0.73 0.69 0.68 0.66 0.55 0.59 0.69 0.64 0.68 0.52 0.82 0.89 0.71 0.76 0.86 0.68 0.70 0.70 0.73 0.81 1.06 1.05 0.96 1.17 1.64 1.68 2.44 2.39 2.29 1.21 1.19 1.28
0.44 0.24 0.22 0.26 0.34 0.36 0.47 0.58 0.52 0.57 0.53 0.52 0.74 0.60 0.47 0.47 0.49 0.61 0.63 0.77 0.78 0.76 0.86 0.83 0.92 1.15 1.74 1.98 3.03 2.81 1.76 1.50

GFSFLT1_prec_precacc_207.txt.gz
Total_Precipitation_Accumulation
0.00 0.01 0.03 0.04 0.07 0.29 0.67 1.07 1.58 2.74 1.92 1.10 0.63 0.64 0.69 0.72 0.82 0.86 1.42 0.92 0.86 0.89 0.48 0.37 0.36 0.23 0.13 0.11 0.10 0.17 0.11 0.16
0.01 0.01 0.04 0.03 0.16 0.49 0.76 0.83 0.94 0.83 0.38 0.35 0.36 0.49 0.73 0.84 0.91 0.75 1.40 1.15 0.74 0.98 1.07 0.56 0.50 0.30 0.16 0.13 0.20 0.18 0.18 0.19
0.01 0.05 0.11 0.18 0.33 0.38 0.24 0.10 0.07 0.10 0.11 0.15 0.17 0.21 0.45 0.55 1.15 0.83 1.01 1.18 0.53 0.51 0.80 0.74 0.59 0.38 0.34 0.21 0.19 0.16 0.16 0.22
0.04 0.06 0.07 0.06 0.04 0.10 0.07 0.06 0.04 0.04 0.07 0.10 0.19 0.20 0.32 0.56 1.21 1.27 0.89 1.21 0.77 0.42 0.58 0.71 0.69 0.55 0.44 0.25 0.23 0.21 0.15 0.16
0.01 0.01 0.02 0.01 0.07 0.03 0.09 0.13 0.07 0.06 0.05 0.08 0.10 0.12 0.16 0.30 0.64 0.94 1.03 1.07 0.94 0.65 0.64 0.69 0.77 0.56 0.44 0.31 0.32 0.32 0.38 0.26
0.05 0.10 0.04 0.03 0.04 0.09 0.16 0.16 0.16 0.18 0.14 0.15 0.16 0.16 0.24 0.26 0.48 1.00 1.12 1.19 1.35 1.10 0.97 1.05 0.88 0.86 0.59 0.47 0.46 0.51 0.44 0.36
0.35 0.18 0.04 0.02 0.07 0.14 0.24 0.23 0.26 0.30 0.29 0.24 0.29 0.33 0.26 0.25 0.38 0.93 1.19 1.24 1.19 1.27 1.73 1.75 1.53 1.33 1.32 0.97 0.76 0.62 0.50 0.48
0.19 0.17 0.10 0.09 0.15 0.23 0.36 0.36 0.38 0.40 0.38 0.46 0.38 0.32 0.31 0.27 0.28 0.36 0.87 1.43 1.48 1.21 1.31 1.83 1.86 1.71 1.60 1.50 1.53 1.43 1.13 1.04
0.22 0.20 0.15 0.16 0.16 0.29 0.48 0.54 0.46 0.46 0.46 0.52 0.50 0.34 0.31 0.33 0.31 0.34 0.34 0.78 1.41 2.07 1.72 1.59 1.82 1.64 1.99 2.23 2.23 2.33 2.31 2.24
0.40 0.37 0.22 0.17 0.17 0.27 0.46 0.50 0.40 0.45 0.50 0.50 0.61 0.69 0.65 0.65 0.75 0.94 1.04 1.27 1.68 2.56 3.28 3.01 2.83 2.95 2.51 2.72 2.83 2.60 2.58 2.42
0.63 0.68 0.44 0.25 0.19 0.33 0.46 0.43 0.49 0.58 0.83 0.91 0.98 0.86 0.81 0.72 0.91 1.47 1.87 1.48 1.85 1.98 2.60 3.46 3.62 3.47 3.48 3.21 3.11 2.66 2.50 2.29
0.91 0.96 0.75 0.45 0.31 0.37 0.47 0.54 0.52 0.61 0.78 0.95 1.17 1.51 1.78 1.66 1.50 2.00 2.29 1.97 2.13 2.81 2.72 2.77 3.19 3.20 3.74 3.84 3.41 3.13 2.89 2.58
1.30 1.20 0.86 0.63 0.52 0.41 0.33 0.54 0.83 0.72 0.83 1.08 1.10 1.32 1.88 2.38 2.56 2.70 3.37 3.75 3.11 3.23 3.12 2.48 2.25 2.29 2.58 3.45 3.33 2.80 2.61 2.30
1.40 1.90 1.56 0.93 0.67 0.60 0.52 0.48 0.73 0.86 1.10 1.23 1.76 2.07 2.02 2.29 2.31 2.28 2.50 2.96 2.69 2.99 2.93 2.72 2.34 2.13 2.16 2.21 2.88 2.88 2.20 1.96
1.60 1.81 2.11 1.52 1.37 1.15 0.91 0.75 0.75 0.92 0.99 1.25 1.23 1.51 1.90 2.11 2.38 2.55 3.12 3.10 3.27 3.43 3.64 2.61 2.12 1.93 1.70 1.54 1.47 1.83 2.05 1.67
0.96 1.09 1.60 1.42 1.33 1.22 0.93 0.84 0.85 0.78 0.77 0.97 1.36 1.11 1.31 1.36 1.51 1.77 2.02 2.47 2.86 3.39 3.56 3.08 2.31 2.07 1.88 1.54 1.35 1.27 1.55 1.84
0.94 0.80 0.77 0.81 0.79 0.79 0.74 0.84 0.82 0.95 0.92 0.80 0.89 0.89 0.91 1.01 1.03 1.12 1.15 1.23 1.29 1.62 2.23 2.89 2.82 2.25 2.39 1.99 1.52 1.27 1.27 1.48
0.73 0.69 0.68 0.66 0.55 0.59 0.70 0.64 0.68 0.54 0.84 0.90 0.72 0.77 0.87 0.69 0.71 0.74 0.78 0.89 1.17 1.15 1.12 1.41 1.95 2.01 2.76 2.67 2.54 1.40 1.34 1.39
0.44 0.24 0.22 0.26 0.34 0.37 0.48 0.60 0.54 0.59 0.54 0.52 0.74 0.61 0.47 0.47 0.50 0.62 0.66 0.84 0.90 0.92 1.03 1.02 1.11 1.29 1.87 2.11 3.15 2.90 1.83 1.55

GFSFLT1_prec_precacc_210.txt.gz
Total_Precipitation_Accumulation
0.00 0.01 0.03 0.04 0.07 0.29 0.68 1.07 1.59 2.75 1.92 1.10 0.64 0.64 0.69 0.72 0.83 0.87 1.43 0.93 0.87 0.89 0.49 0.37 0.36 0.23 0.13 0.11 0.10 0.17 0.11 0.16
0.01 0.01 0.04 0.03 0.16 0.49 0.76 0.84 0.94 0.83 0.39 0.36 0.37 0.49 0.73 0.85 0.91 0.75 1.41 1.15 0.74 0.99 1.08 0.56 0.51 0.30 0.16 0.13 0.20 0.18 0.18 0.19
0.01 0.05 0.11 0.18 0.33 0.38 0.24 0.10 0.07 0.10 0.12 0.16 0.17 0.21 0.45 0.55 1.15 0.85 1.03 1.20 0.57 0.55 0.83 0.76 0.61 0.39 0.34 0.21 0.19 0.16 0.16 0.22
0.04 0.06 0.07 0.06 0.04 0.10 0.07 0.06 0.04 0.04 0.07 0.11 0.20 0.20 0.33 0.56 1.21 1.28 0.90 1.23 0.83 0.48 0.63 0.75 0.72 0.56 0.44 0.25 0.23 0.21 0.15 0.16
0.01 0.01 0.02 0.01 0.07 0.03 0.09 0.13 0.07 0.06 0.05 0.09 0.10 0.13 0.16 0.30 0.64 0.94 1.03 1.07 0.96 0.70 0.69 0.73 0.80 0.59 0.45 0.31 0.32 0.32 0.38 0.26
0.05 0.10 0.04 0.03 0.04 0.09 0.16 0.16 0.16 0.18 0.14 0.15 0.16 0.16 0.24 0.26 0.48 1.01 1.12 1.19 1.36 1.12 0.99 1.08 0.89 0.87 0.60 0.48 0.46 0.51 0.44 0.36
0.35 0.18 0.04 0.02 0.07 0.14 0.24 0.23 0.26 0.30 0.29 0.24 0.29 0.33 0.26 0.26 0.39 0.93 1.19 1.24 1.19 1.27 1.73 1.76 1.54 1.34 1.35 1.00 0.77 0.63 0.51 0.48
0.19 0.17 0.10 0.09 0.15 0.23 0.36 0.36 0.38 0.40 0.38 0.46 0.38 0.32 0.31 0.27 0.28 0.36 0.87 1.43 1.49 1.21 1.31 1.83 1.86 1.71 1.62 1.53 1.55 1.45 1.14 1.06
0.22 0.20 0.15 0.16 0.16 0.29 0.48 0.54 0.46 0.46 0.46 0.52 0.50 0.34 0.31 0.33 0.31 0.34 0.34 0.78 1.42 2.07 1.72 1.59 1.82 1.64 2.00 2.24 2.24 2.34 2.32 2.25
0.40 0.37 0.22 0.17 0.17 0.27 0.46 0.50 0.40 0.45 0.50 0.50 0.61 0.69 0.65 0.65 0.75 0.94 1.04 1.27 1.68 2.56 3.28 3.01 2.83 2.95 2.51 2.72 2.84 2.62 2.60 2.45
0.63 0.68 0.44 0.25 0.19 0.33 0.46 0.43 0.49 0.58 0.83 0.91 0.98 0.86 0.81 0.72 0.91 1.47 1.87 1.48 1.85 1.98 2.60 3.46 3.62 3.47 3.49 3.22 3.12 2.69 2.54 2.33
0.91 0.96 0.75 0.45 0.31 0.37 0.47 0.54 0.52 0.61 0.78 0.95 1.17 1.51 1.78 1.66 1.50 2.00 2.29 1.97 2.13 2.81 2.72 2.77 3.19 3.20 3.74 3.85 3.41 3.14 2.90 2.60
1.30 1.20 0.86 0.63 0.52 0.41 0.33 0.54 0.83 0.72 0.83 1.08 1.10 1.32 1.88 2.38 2.56 2.70 3.37 3.75 3.12 3.23 3.13 2.49 2.29 2.33 2.61 3.47 3.35 2.81 2.62 2.31
1.40 1.90 1.56 0.93 0.67 0.60 0.52 0.48 0.73 0.86 1.10 1.23 1.76 2.07 2.02 2.29 2.31 2.29 2.50 2.96 2.69 3.00 2.94 2.75 2.40 2.24 2.34 2.39 3.03 3.01 2.34 2.11
1.60 1.81 2.11 1.52 1.37 1.15 0.91 0.75 0.75 0.92 0.99 1.25 1.23 1.51 1.90 2.11 2.38 2.55 3.12 3.11 3.27 3.44 3.65 2.62 2.16 2.00 1.82 1.71 1.74 2.22 2.45 2.01
0.96 1.09 1.60 1.42 1.33 1.22 0.93 0.84 0.85 0.78 0.77 0.97 1.36 1.11 1.31 1.36 1.51 1.77 2.03 2.47 2.86 3.40 3.57 3.11 2.36 2.17 2.03 1.72 1.58 1.51 1.81 2.13
0.94 0.80 0.77 0.81 0.79 0.79 0.74 0.84 0.82 0.95 0.92 0.80 0.89 0.89 0.91 1.01 1.03 1.12 1.15 1.23 1.29 1.62 2.24 2.93 2.91 2.36 2.58 2.26 1.89 1.66 1.60 1.72
0.73 0.69 0.68 0.66 0.55 0.59 0.70 0.64 0.68 0.54 0.84 0.90 0.72 0.77 0.87 0.70 0.71 0.74 0.78 0.89 1.17 1.19 1.16 1.45 2.03 2.17 3.00 2.91 2.76 1.63 1.54 1.60
0.44 0.24 0.22 0.26 0.34 0.37 0.48 0.60 0.54 0.59 0.54 0.52 0.75 0.61 0.47 0.47 0.50 0.62 0.66 0.84 0.90 0.93 1.07 1.05 1.17 1.39 1.99 2.24 3.30 3.05 2.00 1.71

GFSFLT1_prec_precacc_216.txt.gz
Total_Precipitation_Accumulation
0.00 0.01 0.03 0.04 0.07 0.29 0.68 1.07 1.59 2.75 1.93 1.12 0.66 0.67 0.73 0.74 0.85 0.89 1.45 0.94 0.90 0.93 0.55 0.47 0.41 0.24 0.14 0.11 0.10 0.17 0.11 0.16
0.01 0.01 0.04 0.03 0.16 0.49 0.76 0.84 0.94 0.84 0.41 0.38 0.38 0.51 0.76 0.88 0.94 0.78 1.43 1.18 0.76 1.01 1.09 0.59 0.53 0.31 0.16 0.14 0.20 0.18 0.18 0.19
0.01 0.05 0.11 0.18 0.33 0.38 0.24 0.10 0.07 0.10 0.12 0.17 0.18 0.22 0.46 0.56 1.16 0.87 1.06 1.24 0.62 0.58 0.86 0.78 0.62 0.41 0.35 0.22 0.19 0.16 0.16 0.22
0.04 0.06 0.07 0.06 0.04 0.10 0.07 0.06 0.04 0.04 0.07 0.11 0.20 0.21 0.33 0.56 1.22 1.28 0.91 1.24 0.85 0.51 0.67 0.79 0.78 0.62 0.49 0.29 0.25 0.23 0.16 0.17
0.01 0.01 0.02 0.01 0.07 0.03 0.09 0.13 0.07 0.06 0.05 0.09 0.10 0.13 0.16 0.30 0.64 0.94 1.04 1.08 0.96 0.71 0.70 0.75 0.83 0.63 0.51 0.37 0.36 0.37 0.41 0.28
0.05 0.10 0.04 0.03 0.04 0.09 0.16 0.16 0.16 0.18 0.14 0.15 0.16 0.16 0.24 0.26 0.48 1.01 1.12 1.19 1.36 1.13 1.01 1.10 0.93 0.90 0.64 0.55 0.51 0.56 0.49 0.40
0.35 0.18 0.04 0.02 0.07 0.14 0.24 0.23 0.26 0.30 0.29 0.24 0.29 0.33 0.26 0.26 0.39 0.93 1.19 1.24 1.20 1.28 1.75 1.79 1.57 1.37 1.39 1.07 0.85 0.71 0.58 0.54
0.19 0.17 0.10 0.09 0.15 0.23 0.36 0.36 0.38 0.40 0.38 0.46 0.38 0.32 0.31 0.27 0.28 0.36 0.87 1.43 1.49 1.21 1.32 1.84 1.87 1.72 1.63 1.55 1.61 1.55 1.26 1.17
0.22 0.20 0.15 0.16 0.16 0.29 0.48 0.54 0.46 0.46 0.46 0.52 0.50 0.34 0.31 0.33 0.31 0.34 0.34 0.78 1.42 2.07 1.73 1.60 1.83 1.65 2.01 2.25 2.26 2.39 2.39 2.34
0.40 0.37 0.22 0.17 0.17 0.27 0.46 0.50 0.40 0.45 0.50 0.50 0.61 0.69 0.65 0.65 0.75 0.94 1.04 1.27 1.68 2.56 3.28 3.01 2.83 2.96 2.52 2.74 2.85 2.63 2.67 2.54
0.63 0.68 0.44 0.25 0.19 0.33 0.46 0.43 0.49 0.58 0.83 0.91 0.98 0.86 0.81 0.72 0.91 1.47 1.87 1.48 1.85 1.98 2.60 3.46 3.62 3.48 3.49 3.23 3.13 2.70 2.57 2.39
0.91 0.96 0.75 0.45 0.31 0.37 0.47 0.54 0.52 0.61 0.78 0.95 1.17 1.51 1.78 1.66 1.50 2.00 2.29 1.97 2.13 2.81 2.72 2.77 3.19 3.20 3.74 3.85 3.41 3.14 2.91 2.63
1.30 1.20 0.86 0.63 0.52 0.41 0.33 0.54 0.83 0.72 0.83 1.08 1.10 1.32 1.88 2.38 2.56 2.70 3.37 3.75 3.12 3.23 3.13 2.49 2.29 2.33 2.61 3.48 3.36 2.81 2.63 2.33
1.40 1.90 1.56 0.93 0.67 0.60 0.52 0.48 0.73 0.86 1.10 1.23 1.76 2.07 2.02 2.29 2.31 2.29 2.50 2.96 2.69 3.00 2.94 2.75 2.40 2.24 2.34 2.40 3.05 3.04 2.38 2.18
1.60 1.81 2.11 1.52 1.37 1.15 0.91 0.75 0.75 0.92 0.99 1.25 1.23 1.51 1.90 2.11 2.38 2.55 3.12 3.11 3.27 3.44 3.65 2.62 2.16 2.00 1.82 1.72 1.75 2.25 2.55 2.16
0.96 1.09 1.60 1.42 1.33 1.22 0.93 0.84 0.85 0.78 0.77 0.97 1.36 1.11 1.31 1.36 1.51 1.77 2.03 2.47 2.86 3.40 3.57 3.11 2.36 2.18 2.04 1.74 1.60 1.56 1.95 2.38
0.94 0.80 0.77 0.81 0.79 0.79 0.74 0.84 0.82 0.95 0.92 0.80 0.89 0.89 0.91 1.01 1.03 1.12 1.15 1.23 1.29 1.62 2.24 2.93 2.92 2.37 2.59 2.29 1.94 1.73 1.73 2.02
0.73 0.69 0.68 0.66 0.55 0.59 0.70 0.64 0.68 0.54 0.84 0.90 0.72 0.77 0.87 0.70 0.71 0.74 0.78 0.89 1.17 1.19 1.16 1.46 2.03 2.18 3.03 2.96 2.88 1.86 1.82 1.88
0.44 0.24 0.22 0.26 0.34 0.37 0.48 0.60 0.54 0.59 0.54 0.52 0.75 0.61 0.47 0.47 0.50 0.62 0.66 0.84 0.90 0.93 1.07 1.05 1.17 1.40 2.01 2.31 3.40 3.19 2.19 1.95

GFSFLT1_prec_precacc_219.txt.gz
Total_Precipitation_Accumulation
0.00 0.01 0.03 0.04 0.07 0.33 0.74 1.09 1.62 2.78 1.94 1.12 0.66 0.69 0.74 0.74 0.85 0.89 1.45 0.95 0.91 0.94 0.55 0.48 0.42 0.25 0.14 0.11 0.11 0.17 0.11 0.16
0.01 0.01 0.04 0.03 0.16 0.50 0.80 0.85 0.97 0.85 0.42 0.38 0.38 0.51 0.76 0.88 0.95 0.78 1.44 1.18 0.76 1.01 1.10 0.62 0.53 0.31 0.17 0.14 0.20 0.18 0.18 0.19
0.01 0.05 0.11 0.18 0.33 0.38 0.24 0.10 0.07 0.11 0.13 0.17 0.18 0.22 0.46 0.56 1.16 0.87 1.06 1.25 0.62 0.59 0.87 0.83 0.69 0.46 0.38 0.25 0.20 0.17 0.16 0.23
0.04 0.06 0.07 0.06 0.04 0.10 0.07 0.06 0.04 0.04 0.07 0.12 0.20 0.21 0.33 0.56 1.22 1.28 0.91 1.24 0.85 0.51 0.67 0.81 0.82 0.69 0.56 0.34 0.32 0.29 0.19 0.18
0.01 0.01 0.02 0.01 0.07 0.03 0.09 0.13 0.07 0.06 0.05 0.09 0.10 0.13 0.16 0.30 0.64 0.94 1.04 1.08 0.96 0.71 0.70 0.75 0.84 0.64 0.53 0.39 0.38 0.41 0.45 0.32
0.05 0.10 0.04 0.03 0.04 0.09 0.16 0.16 0.16 0.18 0.14 0.15 0.16 0.16 0.24 0.26 0.48 1.01 1.12 1.19 1.36 1.14 1.01 1.11 0.94 0.91 0.65 0.56 0.53 0.57 0.51 0.43
0.35 0.18 0.04 0.02 0.07 0.14 0.24 0.23 0.26 0.30 0.29 0.24 0.29 0.33 0.26 0.26 0.39 0.93 1.19 1.24 1.20 1.28 1.75 1.79 1.57 1.38 1.40 1.08 0.87 0.74 0.60 0.56
0.19 0.17 0.10 0.09 0.15 0.23 0.36 0.36 0.38 0.40 0.38 0.46 0.38 0.32 0.31 0.27 0.28 0.36 0.87 1.43 1.49 1.21 1.32 1.84 1.87 1.72 1.63 1.55 1.62 1.57 1.29 1.22
0.22 0.20 0.15 0.16 0.16 0.29 0.48 0.54 0.46 0.46 0.46 0.52 0.50 0.34 0.31 0.33 0.31 0.34 0.34 0.78 1.42 2.07 1.73 1.60 1.83 1.65 2.01 2.25 2.27 2.39 2.40 2.35
0.40 0.37 0.22 0.17 0.17 0.27 0.46 0.50 0.40 0.45 0.50 0.50 0.61 0.69 0.65 0.65 0.75 0.94 1.04 1.27 1.68 2.56 3.28 3.01 2.83 2.96 2.52 2.74 2.85 2.64 2.68 2.54
0.63 0.68 0.44 0.25 0.19 0.33 0.46 0.43 0.49 0.58 0.83 0.91 0.98 0.86 0.81 0.72 0.91 1.47 1.87 1.48 1.85 1.98 2.60 3.46 3.62 3.48 3.49 3.23 3.13 2.70 2.57 2.39
0.91 0.96 0.75 0.45 0.31 0.37 0.47 0.54 0.52 0.61 0.78 0.95 1.17 1.51 1.78 1.66 1.50 2.00 2.29 1.97 2.13 2.81 2.72 2.77 3.19 3.20 3.74 3.85 3.41 3.14 2.91 2.63
1.30 1.20 0.86 0.63 0.52 0.41 0.33 0.54 0.83 0.72 0.83 1.08 1.10 1.32 1.88 2.38 2.56 2.70 3.37 3.75 3.12 3.23 3.13 2.49 2.29 2.33 2.61 3.48 3.36 2.81 2.63 2.33
1.40 1.90 1.56 0.93 0.67 0.60 0.52 0.48 0.73 0.86 1.10 1.23 1.76 2.07 2.02 2.29 2.31 2.29 2.50 2.96 2.69 3.00 2.94 2.75 2.40 2.24 2.34 2.40 3.05 3.04 2.38 2.18
1.60 1.81 2.11 1.52 1.37 1.15 0.91 0.75 0.75 0.92 0.99 1.25 1.23 1.51 1.90 2.11 2.38 2.55 3.12 3.11 3.27 3.44 3.65 2.62 2.16 2.00 1.82 1.72 1.75 2.25 2.55 2.16
0.96 1.09 1.60 1.42 1.33 1.22 0.93 0.84 0.85 0.78 0.77 0.97 1.36 1.11 1.31 1.36 1.51 1.77 2.03 2.47 2.86 3.40 3.57 3.11 2.36 2.18 2.04 1.74 1.60 1.56 1.95 2.38
0.94 0.80 0.77 0.81 0.79 0.79 0.74 0.84 0.82 0.95 0.92 0.80 0.89 0.89 0.91 1.01 1.03 1.12 1.15 1.23 1.29 1.62 2.24 2.93 2.92 2.37 2.59 2.29 1.94 1.73 1.73 2.02
0.73 0.69 0.68 0.66 0.55 0.59 0.70 0.64 0.68 0.54 0.84 0.90 0.72 0.77 0.87 0.70 0.71 0.75 0.78 0.89 1.18 1.19 1.16 1.46 2.03 2.18 3.03 2.96 2.88 1.86 1.82 1.88
0.44 0.24 0.22 0.26 0.34 0.37 0.48 0.60 0.54 0.59 0.54 0.52 0.75 0.61 0.47 0.47 0.50 0.62 0.67 0.85 0.91 0.93 1.07 1.05 1.17 1.40 2.02 2.31 3.40 3.19 2.19 1.95

GFSFLT1_prec_precacc_222.txt.gz
Total_Precipitation_Accumulation
0.00 0.01 0.03 0.04 0.09 0.38 0.78 1.15 1.67 2.83 1.97 1.13 0.66 0.69 0.74 0.74 0.85 0.89 1.45 0.96 0.91 0.94 0.55 0.48 0.42 0.25 0.14 0.11 0.11 0.17 0.11 0.16
0.01 0.01 0.04 0.03 0.16 0.53 0.83 0.88 1.00 0.90 0.46 0.40 0.38 0.51 0.76 0.89 0.96 0.79 1.45 1.19 0.78 1.02 1.11 0.62 0.53 0.32 0.18 0.14 0.20 0.18 0.18 0.19
0.01 0.05 0.11 0.18 0.33 0.38 0.25 0.13 0.07 0.11 0.15 0.19 0.18 0.22 0.46 0.56 1.17 0.88 1.07 1.25 0.65 0.61 0.89 0.86 0.73 0.50 0.45 0.33 0.26 0.20 0.17 0.23
0.04 0.06 0.07 0.06 0.04 0.10 0.07 0.06 0.04 0.04 0.08 0.12 0.20 0.21 0.33 0.56 1.22 1.28 0.91 1.24 0.85 0.51 0.68 0.84 0.88 0.73 0.61 0.41 0.42 0.36 0.25 0.22
0.01 0.01 0.02 0.01 0.07 0.03 0.09 0.13 0.07 0.06 0.06 0.09 0.10 0.13 0.16 0.30 0.64 0.94 1.04 1.08 0.96 0.71 0.70 0.75 0.84 0.64 0.53 0.40 0.39 0.42 0.47 0.35
0.05 0.10 0.04 0.03 0.04 0.09 0.16 0.16 0.16 0.18 0.14 0.15 0.16 0.16 0.24 0.26 0.48 1.01 1.12 1.19 1.36 1.14 1.01 1.11 0.94 0.91 0.65 0.57 0.53 0.57 0.52 0.44
0.35 0.18 0.04 0.02 0.07 0.14 0.24 0.23 0.26 0.30 0.29 0.24 0.29 0.33 0.26 0.26 0.39 0.93 1.19 1.24 1.20 1.28 1.75 1.79 1.57 1.38 1.40 1.08 0.88 0.74 0.60 0.57
0.19 0.17 0.10 0.09 0.15 0.23 0.36 0.36 0.38 0.40 0.38 0.46 0.38 0.32 0.31 0.27 0.28 0.36 0.87 1.43 1.49 1.21 1.32 1.84 1.87 1.72 1.63 1.55 1.62 1.57 1.29 1.22
0.22 0.20 0.15 0.16 0.16 0.29 0.48 0.54 0.46 0.46 0.46 0.52 0.50 0.34 0.31 0.33 0.31 0.34 0.34 0.78 1.42 2.07 1.73 1.60 1.83 1.65 2.01 2.25 2.27 2.39 2.40 2.35
0.40 0.37 0.22 0.17 0.17 0.27 0.46 0.50 0.40 0.45 0.50 0.50 0.61 0.69 0.65 0.65 0.75 0.94 1.04 1.27 1.68 2.56 3.28 3.01 2.83 2.96 2.52 2.74 2.85 2.64 2.68 2.54
0.63 0.68 0.44 0.25 0.19 0.33 0.46 0.43 0.49 0.58 0.83 0.91 0.98 0.86 0.81 0.72 0.91 1.47 1.87 1.48 1.85 1.98 2.60 3.46 3.62 3.48 3.49 3.23 3.13 2.70 2.57 2.39
0.91 0.96 0.75 0.45 0.31 0.37 0.47 0.54 0.52 0.61 0.78 0.95 1.17 1.51 1.78 1.66 1.50 2.00 2.29 1.97 2.13 2.81 2.72 2.77 3.19 3.20 3.74 3.85 3.41 3.14 2.91 2.63
1.30 1.20 0.86 0.63 0.52 0.41 0.33 0.54 0.83 0.72 0.83 1.08 1.10 1.32 1.88 2.38 2.56 2.70 3.37 3.75 3.12 3.23 3.13 2.49 2.29 2.33 2.61 3.48 3.36 2.81 2.63 2.33
1.40 1.90 1.56 0.93 0.67 0.60 0.52 0.48 0.73 0.86 1.10 1.23 1.76 2.07 2.02 2.29 2.31 2.29 2.50 2.96 2.69 3.00 2.94 2.75 2.40 2.24 2.34 2.40 3.05 3.04 2.38 2.18
1.60 1.81 2.11 1.52 1.37 1.15 0.91 0.75 0.75 0.92 0.99 1.25 1.23 1.51 1.90 2.11 2.38 2.55 3.12 3.11 3.27 3.44 3.65 2.62 2.16 2.00 1.82 1.72 1.75 2.25 2.55 2.16
0.96 1.09 1.60 1.42 1.33 1.22 0.93 0.84 0.85 0.78 0.77 0.97 1.36 1.11 1.31 1.36 1.51 1.77 2.03 2.47 2.86 3.40 3.57 3.11 2.36 2.18 2.04 1.74 1.60 1.56 1.95 2.38
0.94 0.80 0.77 0.81 0.79 0.79 0.74 0.84 0.82 0.95 0.92 0.80 0.89 0.89 0.91 1.01 1.03 1.12 1.15 1.23 1.29 1.62 2.24 2.93 2.92 2.37 2.59 2.29 1.94 1.73 1.73 2.02
0.73 0.69 0.68 0.66 0.55 0.59 0.70 0.64 0.68 0.54 0.84 0.90 0.72 0.77 0.87 0.70 0.71 0.75 0.78 0.89 1.18 1.20 1.16 1.46 2.03 2.18 3.03 2.96 2.89 1.86 1.82 1.88
0.44 0.24 0.22 0.26 0.34 0.37 0.48 0.60 0.54 0.59 0.54 0.52 0.75 0.61 0.47 0.47 0.50 0.62 0.67 0.85 0.91 0.93 1.07 1.05 1.17 1.40 2.02 2.31 3.41 3.19 2.19 1.95